Location: DARK SKY Beskydy - Park tmavé oblohy, www.darkskybeskydy.cz
(49.4926°N, 18.5016°E)
Time: 11:44:35
(UTC+01:00)

Vanguard 1 - All Passes

Search period start: 22 February 2024 00:00
Search period end: 03 March 2024 00:00
Orbit: 653 x 3826 km, 34.3° (Epoch: 21 February)

Date Brightness Start Highest point End Pass type
(mag) Time Alt. Az. Time Alt. Az. Time Alt. Az.
22 Feb - 02:18:09 10° W 02:36:19 31° SW 02:51:53 10° SSE visible
22 Feb - 17:19:06 10° SSE 17:25:55 14° SE 17:34:10 10° E daylight
22 Feb - 19:31:55 10° SSW 19:45:45 38° SSE 20:05:08 10° E visible
22 Feb - 21:51:05 10° WSW 22:08:56 52° S 22:30:47 10° ESE visible
23 Feb - 00:13:27 10° W 00:33:26 46° SSW 00:53:07 10° SE visible
23 Feb - 02:39:36 10° W 02:56:01 26° SW 03:10:21 10° S visible
23 Feb - 17:36:20 10° S 17:45:15 20° SE 17:57:01 10° E visible
23 Feb - 19:51:26 10° SW 20:05:43 42° SSE 20:25:58 10° E visible
23 Feb - 22:11:15 10° WSW 22:29:20 52° S 22:51:08 10° ESE visible
24 Feb - 00:34:05 10° W 00:53:37 42° SSW 01:12:42 10° SE visible
24 Feb - 03:01:37 10° W 03:15:35 20° SW 03:28:05 10° S visible
24 Feb - 17:54:37 10° S 18:04:42 25° SE 18:18:52 10° E visible
24 Feb - 20:11:09 10° SW 20:25:48 46° SSE 20:46:42 10° E visible
24 Feb - 22:31:31 10° WSW 22:49:43 51° S 23:11:21 10° ESE visible
25 Feb - 00:54:51 10° W 01:13:41 37° SSW 01:32:00 10° SSE visible
25 Feb - 03:24:52 10° W 03:35:03 15° SW 03:44:29 10° SSW visible
25 Feb - 18:13:28 10° SSW 18:24:19 30° SE 18:40:14 10° E visible
25 Feb - 20:31:01 10° SW 20:46:00 48° SSE 21:07:19 10° ESE visible
25 Feb - 22:51:52 10° WSW 23:10:04 48° SSW 23:31:24 10° SE visible
26 Feb - 01:15:50 10° W 01:33:37 32° SW 01:50:56 10° SSE visible
26 Feb - 16:22:02 10° SE 16:25:06 11° ESE 16:28:31 10° ESE daylight
26 Feb - 18:32:40 10° SSW 18:44:03 35° SSE 19:01:19 10° E visible
26 Feb - 20:51:02 10° WSW 21:06:17 50° S 21:27:51 10° ESE visible
26 Feb - 23:12:18 10° W 23:30:23 45° SSW 23:51:15 10° SE visible
27 Feb - 01:37:09 10° W 01:53:27 26° SW 02:09:21 10° S visible
27 Feb - 16:38:03 10° SSE 16:44:24 16° SE 16:52:36 10° E daylight
27 Feb - 18:52:10 10° SW 19:03:56 39° SSE 19:22:13 10° E visible
27 Feb - 21:11:08 10° WSW 21:26:37 50° S 21:48:15 10° ESE visible
27 Feb - 23:32:51 10° W 23:50:38 41° SSW 00:10:51 10° SE visible
28 Feb - 01:59:02 10° W 02:13:11 21° SW 02:27:03 10° S visible
28 Feb - 16:56:05 10° S 17:03:49 21° SE 17:14:43 10° E daylight
28 Feb - 19:11:51 10° SW 19:23:57 43° SSE 19:42:59 10° E visible
28 Feb - 21:31:20 10° WSW 21:46:59 49° S 22:08:31 10° ESE visible
28 Feb - 23:53:33 10° W 00:10:47 36° SSW 00:30:08 10° SSE visible
29 Feb - 02:22:01 10° W 02:32:48 16° SW 02:43:26 10° SSW night (unlit)
29 Feb - 17:14:49 10° S 17:23:22 26° SE 17:36:11 10° E daylight
29 Feb - 19:31:41 10° SW 19:44:04 45° SSE 20:03:39 10° ESE visible
29 Feb - 21:51:37 10° WSW 22:07:20 47° S 22:28:37 10° SE visible
01 Mar - 00:14:27 10° W 00:30:51 31° SW 00:49:01 10° SSE visible
01 Mar - 02:49:21 10° WSW 02:52:20 10° SW 02:55:18 10° SW night (unlit)
01 Mar - 17:33:59 10° SSW 17:43:04 31° SE 17:57:19 10° E visible
01 Mar - 19:51:39 10° WSW 20:04:17 47° S 20:24:13 10° ESE visible
01 Mar - 22:11:59 10° W 22:27:39 43° SSW 22:48:29 10° SE visible
02 Mar - 00:35:41 10° W 00:50:49 26° SW 01:07:23 10° S visible
02 Mar - 15:40:53 10° SE 15:44:07 12° SE 15:47:53 10° ESE daylight
02 Mar - 17:53:25 10° SSW 18:02:53 35° SSE 18:18:14 10° E visible
02 Mar - 20:11:42 10° WSW 20:24:33 47° S 20:44:39 10° ESE visible
02 Mar - 22:32:28 10° W 22:47:56 39° SSW 23:08:05 10° SE visible
